Flag for Turkmenistan Weather past 2 weeks in Ashgabat, Turkmenistan

Now
99 °F

Sunny.


Feels Like: 94 °F
Forecast: 80 / 99 °F
Wind: 1 mph from North

Location: Ashgabat

Current Time: May 30, 2015 at 10:20:57 AM

Latest Report: May 30, 2015 at 10:00 AM


Visibility: N/A

Pressure: 29.80 "Hg

Humidity: 13%

Dew point: 39 °F

Location of AshgabatLocation

Historic Weather in Ashgabat — Graph

°F

Ashgabat temperature yesterday

Maximum temperature yesterday: 100 °F (at 1:00 PM)
Minimum temperature yesterday: 75 °F (at 2:30 AM)
Average temperature yesterday: 87 °F

Past Weeks' High & Low Weather Summary

 TemperatureHumidityPressure
High100 °F (May 29, 1:00 PM)100% (May 16, 4:00 AM)30.09 "Hg (May 16, 4:00 AM)
Low46 °F (May 16, 4:00 AM)10% (May 26, 3:00 PM)29.62 "Hg (May 29, 4:30 AM)
Average79 °F28%29.92 "Hg
* Reported May 15 9:00 AM — May 30 9:00 AM, Ashgabat, Weather by CustomWeather, © 2015

Note: Actual official high and low records may vary slightly from our data, if they occured in-between our weather recording intervals... More about our weather records

Advertising

Ashgabat weather history for previous 24 hours

 ConditionsComfort  
Time TempWeatherWind HumidityBarometerVisibility
9:00 AM
Sat, May 30
95 °FSunny.1 mph13%29.80 "Hg6 mi
8:00 AM86 °FSunny.3 mph24%29.77 "HgN/A
7:00 AM81 °FSunny.1 mph24%29.77 "HgN/A
6:00 AM79 °FClear.3 mph24%29.77 "HgN/A
5:00 AM73 °FClear.6 mph41%29.74 "Hg4 mi
4:00 AM75 °FClear.1 mph36%29.74 "Hg6 mi
3:00 AM77 °FClear.1 mph26%29.74 "Hg4 mi
2:00 AM81 °FPassing clouds.3 mph23%29.74 "HgN/A
1:00 AM84 °FClear.6 mph19%29.74 "HgN/A
12:00 AM84 °FClear.3 mph20%29.74 "HgN/A
11:00 PM
Fri, May 29
84 °FClear.6 mph22%29.74 "Hg6 mi
10:00 PM88 °FClear.1 mph19%29.74 "Hg4 mi
9:00 PM90 °FPassing clouds.6 mph21%29.71 "Hg4 mi
8:00 PM91 °FBroken clouds.1 mph17%29.71 "Hg3 mi
7:00 PM97 °FBroken clouds.3 mph13%29.68 "Hg5 mi
6:00 PM99 °FBroken clouds.3 mph12%29.68 "HgN/A
5:00 PM95 °FPartly sunny.6 mph14%29.68 "HgN/A
4:00 PM91 °FPartly sunny.13 mph20%29.71 "HgN/A
3:30 PM91 °FPartly sunny.20 mph15%29.71 "Hg3 mi
3:00 PM95 °FPartly sunny.8 mph13%29.68 "Hg6 mi
2:00 PM97 °FPartly sunny.3 mph13%29.68 "HgN/A
1:00 PM100 °FBroken clouds.3 mph11%29.68 "HgN/A
12:00 PM97 °FBroken clouds.3 mph13%29.68 "HgN/A
11:00 AM93 °FBroken clouds.No wind14%29.68 "HgN/A
10:30 AM90 °FPartly sunny.1 mph18%29.71 "HgN/A
10:00 AM88 °FPartly sunny.No wind19%29.71 "HgN/A
Weather by CustomWeather, © 2015

See weather overviewHow to use our weather pages